When you browse on this site, cookies collect data to enhance your experience and personalize the content and advertising you see.
Visit our Privacy Policy to learn more. By continuing to use the site, you agree to this use of cookies and data.
  • In Portugal
  • List of Countries
  • For 7 days
  • Water Temperature
  • Satellite Maps
  • Weather Map
  • Weather Widgets
  • user-avatar
    Login

    Hourly Weather Potosi

    Today, 11 December, Tuesday

    Time Temperature Precipitation Wind Pressure Humidity
    00:00 +10°C° 0 mm 2 mps 471 mmHg 59%
    01:00 +10°C° 0 mm 2 mps 471 mmHg 61%
    02:00 +10°C° 0 mm 1 mps 470 mmHg 63%
    03:00 +10°C° 0 mm 1 mps 470 mmHg 61%
    04:00 +9°C° 0 mm 2 mps 470 mmHg 60%
    05:00 +9°C° 0 mm 2 mps 470 mmHg 59%
    06:00 +10°C° 0 mm 2 mps 471 mmHg 56%
    07:00 +11°C° 0 mm 1 mps 471 mmHg 54%
    08:00 +12°C° 0 mm 1 mps 472 mmHg 51%
    09:00 +13°C° 0 mm 1 mps 473 mmHg 43%
    10:00 +15°C° 0 mm 1 mps 473 mmHg 36%
    11:00 +16°C° 0 mm 1 mps 474 mmHg 29%
    12:00 +17°C° 0 mm 2 mps 474 mmHg 26%
    13:00 +18°C° 0 mm 3 mps 474 mmHg 24%
    14:00 +19°C° 0 mm 3 mps 474 mmHg 22%
    15:00 +19°C° 0 mm 5 mps 474 mmHg 24%
    16:00 +19°C° 0 mm 6 mps 473 mmHg 26%
    17:00 +18°C° 0 mm 7 mps 473 mmHg 29%
    18:00 +16°C° 0.9 mm 6 mps 472 mmHg 35%
    19:00 +14°C° 0.9 mm 5 mps 472 mmHg 42%
    20:00 +12°C° 0.9 mm 4 mps 471 mmHg 49%
    21:00 +12°C° 1.7 mm 4 mps 471 mmHg 50%
    22:00 +11°C° 1.7 mm 4 mps 472 mmHg 52%
    23:00 +11°C° 1.7 mm 4 mps 472 mmHg 53%

    Tomorrow, 12 December, Wednesday

    Time Temperature Precipitation Wind Pressure Humidity
    00:00 +11°C° 0 mm 3 mps 472 mmHg 48%
    01:00 +12°C° 0 mm 2 mps 471 mmHg 44%
    02:00 +12°C° 0 mm 2 mps 471 mmHg 39%
    03:00 +12°C° 0 mm 1 mps 471 mmHg 42%
    04:00 +11°C° 0 mm 1 mps 470 mmHg 45%
    05:00 +11°C° 0 mm 1 mps 470 mmHg 48%
    06:00 +12°C° 0 mm 1 mps 470 mmHg 44%
    07:00 +12°C° 0 mm 1 mps 471 mmHg 41%
    08:00 +13°C° 0 mm 1 mps 472 mmHg 38%
    09:00 +14°C° 0 mm 2 mps 472 mmHg 32%
    10:00 +16°C° 0 mm 2 mps 473 mmHg 27%
    11:00 +17°C° 0 mm 3 mps 474 mmHg 22%
    12:00 +18°C° 0 mm 4 mps 474 mmHg 22%
    13:00 +17°C° 0 mm 5 mps 474 mmHg 21%
    14:00 +19°C° 0 mm 6 mps 474 mmHg 20%
    15:00 +17°C° 0 mm 7 mps 473 mmHg 25%
    16:00 +17°C° 0 mm 9 mps 472 mmHg 29%
    17:00 +16°C° 0 mm 10 mps 471 mmHg 33%
    18:00 +13°C° 0.3 mm 9 mps 471 mmHg 40%
    19:00 +12°C° 0.3 mm 7 mps 471 mmHg 47%
    20:00 +10°C° 0.3 mm 6 mps 470 mmHg 54%
    21:00 +10°C° 0.3 mm 5 mps 471 mmHg 55%
    22:00 +11°C° 0.3 mm 4 mps 471 mmHg 56%
    23:00 +10°C° 0.3 mm 2 mps 471 mmHg 57%

    Day after tomorrow, 13 December, Thursday

    Time Temperature Precipitation Wind Pressure Humidity
    00:00 +10°C° 0.1 mm 2 mps 470 mmHg 58%
    01:00 +11°C° 0.1 mm 1 mps 470 mmHg 58%
    02:00 +10°C° 0.1 mm 1 mps 470 mmHg 58%
    03:00 +10°C° 0 mm 1 mps 469 mmHg 57%
    04:00 +10°C° 0 mm 1 mps 469 mmHg 57%
    05:00 +9°C° 0 mm 0 mps 469 mmHg 56%
    06:00 +11°C° 0 mm 1 mps 470 mmHg 54%
    07:00 +11°C° 0 mm 1 mps 470 mmHg 52%
    08:00 +11°C° 0 mm 1 mps 470 mmHg 50%
    09:00 +13°C° 0 mm 1 mps 471 mmHg 42%
    10:00 +14°C° 0 mm 2 mps 472 mmHg 35%
    11:00 +16°C° 0 mm 2 mps 472 mmHg 27%
    12:00 +16°C° 0 mm 3 mps 472 mmHg 25%
    13:00 +17°C° 0 mm 4 mps 472 mmHg 23%
    14:00 +18°C° 0 mm 4 mps 472 mmHg 21%
    15:00 +17°C° 0.1 mm 5 mps 471 mmHg 23%
    16:00 +16°C° 0.1 mm 5 mps 470 mmHg 25%
    17:00 +16°C° 0.1 mm 5 mps 470 mmHg 28%
    18:00 +15°C° 0.2 mm 5 mps 469 mmHg 31%
    19:00 +14°C° 0.2 mm 4 mps 469 mmHg 35%
    20:00 +13°C° 0.2 mm 3 mps 469 mmHg 38%
    21:00 +12°C° 0 mm 3 mps 469 mmHg 40%
    22:00 +12°C° 0 mm 3 mps 470 mmHg 41%
    23:00 +13°C° 0 mm 2 mps 470 mmHg 42%

    14 December, Friday

    Time Temperature Precipitation Wind Pressure Humidity
    00:00 +12°C° 0 mm 2 mps 469 mmHg 45%
    01:00 +12°C° 0 mm 1 mps 468 mmHg 47%
    02:00 +12°C° 0 mm 1 mps 468 mmHg 50%
    03:00 +11°C° 0 mm 1 mps 468 mmHg 52%
    04:00 +11°C° 0 mm 1 mps 467 mmHg 55%
    05:00 +10°C° 0 mm 1 mps 467 mmHg 57%
    06:00 +11°C° 0 mm 1 mps 468 mmHg 53%
    07:00 +12°C° 0 mm 1 mps 468 mmHg 49%
    08:00 +13°C° 0 mm 1 mps 469 mmHg 45%
    09:00 +14°C° 0 mm 1 mps 470 mmHg 39%
    10:00 +15°C° 0 mm 2 mps 471 mmHg 34%
    11:00 +17°C° 0 mm 3 mps 471 mmHg 29%
    12:00 +17°C° 0 mm 3 mps 471 mmHg 29%
    13:00 +18°C° 0 mm 4 mps 471 mmHg 29%
    14:00 +17°C° 0 mm 5 mps 471 mmHg 30%
    15:00 +16°C° 1.7 mm 6 mps 470 mmHg 37%
    16:00 +15°C° 1.7 mm 6 mps 469 mmHg 44%
    17:00 +14°C° 1.7 mm 7 mps 468 mmHg 51%
    18:00 +11°C° 3.8 mm 7 mps 468 mmHg 56%
    19:00 +10°C° 3.8 mm 6 mps 468 mmHg 62%
    20:00 +9°C° 3.8 mm 5 mps 468 mmHg 68%
    21:00 +10°C° 0.7 mm 4 mps 468 mmHg 68%
    22:00 +10°C° 0.7 mm 4 mps 469 mmHg 69%
    23:00 +10°C° 0.7 mm 3 mps 469 mmHg 69%

    15 December, Saturday

    Time Temperature Precipitation Wind Pressure Humidity
    00:00 +9°C° 0.2 mm 2 mps 469 mmHg 69%
    01:00 +9°C° 0.2 mm 2 mps 468 mmHg 69%
    02:00 +8°C° 0.2 mm 2 mps 468 mmHg 68%
    03:00 +8°C° 0 mm 2 mps 468 mmHg 70%
    04:00 +8°C° 0 mm 2 mps 468 mmHg 71%
    05:00 +8°C° 0 mm 2 mps 468 mmHg 73%
    06:00 +8°C° 0.2 mm 2 mps 468 mmHg 70%
    07:00 +8°C° 0.2 mm 2 mps 469 mmHg 68%
    08:00 +8°C° 0.2 mm 2 mps 470 mmHg 66%
    09:00 +10°C° 0.2 mm 2 mps 470 mmHg 60%
    10:00 +11°C° 0.2 mm 3 mps 471 mmHg 53%
    11:00 +12°C° 0.2 mm 3 mps 471 mmHg 47%
    12:00 +13°C° 0.1 mm 4 mps 471 mmHg 44%
    13:00 +14°C° 0.1 mm 5 mps 471 mmHg 41%
    14:00 +15°C° 0.1 mm 5 mps 471 mmHg 38%
    15:00 +14°C° 0.1 mm 6 mps 471 mmHg 42%
    16:00 +13°C° 0.1 mm 6 mps 470 mmHg 46%
    17:00 +12°C° 0.1 mm 7 mps 470 mmHg 50%
    18:00 +11°C° 0.4 mm 6 mps 470 mmHg 57%
    19:00 +9°C° 0.4 mm 5 mps 469 mmHg 64%
    20:00 +8°C° 0.4 mm 4 mps 469 mmHg 71%
    21:00 +8°C° 0.7 mm 4 mps 469 mmHg 72%
    22:00 +8°C° 0.7 mm 3 mps 469 mmHg 74%
    23:00 +8°C° 0.7 mm 2 mps 469 mmHg 76%

    16 December, Sunday

    Time Temperature Precipitation Wind Pressure Humidity
    00:00 +8°C° 0.3 mm 2 mps 469 mmHg 76%
    01:00 +7°C° 0.3 mm 2 mps 468 mmHg 77%
    02:00 +7°C° 0.3 mm 2 mps 468 mmHg 77%
    03:00 +7°C° 0.1 mm 2 mps 468 mmHg 78%
    04:00 +7°C° 0.1 mm 2 mps 468 mmHg 79%
    05:00 +7°C° 0.1 mm 2 mps 468 mmHg 80%
    06:00 +7°C° 0.1 mm 2 mps 468 mmHg 77%
    07:00 +8°C° 0.1 mm 2 mps 469 mmHg 75%
    08:00 +8°C° 0.1 mm 2 mps 469 mmHg 72%
    09:00 +9°C° 0.1 mm 2 mps 470 mmHg 66%
    10:00 +12°C° 0.1 mm 2 mps 471 mmHg 60%
    11:00 +12°C° 0.1 mm 3 mps 471 mmHg 53%
    12:00 +13°C° 0.4 mm 3 mps 471 mmHg 50%
    13:00 +14°C° 0.4 mm 4 mps 471 mmHg 47%
    14:00 +15°C° 0.4 mm 4 mps 471 mmHg 43%
    15:00 +14°C° 0.8 mm 5 mps 470 mmHg 47%
    16:00 +13°C° 0.8 mm 5 mps 470 mmHg 50%
    17:00 +13°C° 0.8 mm 6 mps 469 mmHg 54%
    18:00 +12°C° 0.8 mm 5 mps 469 mmHg 59%
    19:00 +10°C° 0.8 mm 5 mps 469 mmHg 64%
    20:00 +10°C° 0.8 mm 4 mps 468 mmHg 68%
    21:00 +8°C° 0.8 mm 4 mps 468 mmHg 70%
    22:00 +9°C° 0.8 mm 3 mps 469 mmHg 72%
    23:00 +9°C° 0.8 mm 2 mps 469 mmHg 74%
    Show more